Regional Weather Roundup
Issued by NWS

Home | Current Version | Previous Version | Graphics & Text | Print | Product List | Glossary On
Versions: 1 2 3 4 5 6 7 8 9 10 11 12 13 14 15 16 17 18 19 20 21 22 23 24 25 26 27 28 29 30 31 32 33 34 35 36 37 38 39 40 41 42 43 44 45 46 47 48 49 50
000
ASUS45 KABQ 261110
RWRNM
WEATHER ROUNDUP FOR NEW MEXICO
NATIONAL WEATHER SERVICE ALBUQUERQUE NM
400 AM MST FRI DEC 26 2014

NOTE: "FAIR" MEANS FEW OR NO CLOUDS BELOW 12,000 FEET AGL WITH NO
       SIGNIFICANT WEATHER OR OBSTRUCTIONS TO VISION.

      THIS PRODUCT IS RELEASED AS TWO VERSIONS.  ONE VERSION NEAR
      THE TOP OF THE HOUR CONTAINING PRELIMINARY DATA FROM ALBUQUERQUE
      AND OTHER STATIONS.  A FINAL VERSION WITH ADDITIONAL DATA IS
      ISSUED ABOUT 10 MINUTES AFTER THE HOUR.

NMZ501-503-504-510>518-261200-
NORTHWEST PLATEAU/NORTHCENTRAL MOUNTAINS

CITY           SKY/WX    TMP DP  RH WIND       PRES   REMARKS
FARMINGTON     LGT SNOW  24  21  88 CALM      29.69S FOG
LOS ALAMOS     MOCLDY    25  25 100 S8        29.70F WCI  17
SANTA FE       CLOUDY    27  24  89 S6        29.71F WCI  20
TAOS           CLOUDY    25  19  80 CALM      29.68F
ANGEL FIRE     CLOUDY    21  17  84 CALM      29.68F

$$
NMZ402-403-502-505>509-261200-
WESTCENTRAL MOUNTAINS/SOUTHWEST MOUNTAINS

CITY           SKY/WX    TMP DP  RH WIND       PRES   REMARKS
GALLUP         LGT SNOW  23  20  88 W6        29.69F FOG     WCI  16
GRANTS         CLEAR      6   3  87 CALM      29.72F
SILVER CITY    MOCLDY    32  28  86 W3        29.80R

$$
NMZ407-409-411-412-261200-
SOUTHERN DESERTS

CITY           SKY/WX    TMP DP  RH WIND       PRES   REMARKS
LORDSBURG      CLOUDY    34  32  93 SW3       29.82S
DEMING         LGT RAIN  35  34  96 SW8       29.81S WCI  29
LAS CRUCES     RAIN      34  33  94 W14       29.82R WCI  25
HOLLOMAN AFB   DRIZZLE   45  36  70 W22       29.76R
ALAMOGORDO     CLOUDY    45  32  61 SW10      29.78R
T OR C         MOCLDY    40  26  57 SW7       29.73R

$$
NMZ519>523-261200-
CENTRAL VALLEYS/CENTRAL HIGHLANDS

CITY           SKY/WX    TMP DP  RH WIND       PRES   REMARKS
ALBUQUERQUE    MOCLDY    31  30  96 S6        29.74F WCI  25
DOUBLE EAGLE   FOG       29  28  96 S9        29.73F VSB 1/2 WCI  20
MORIARTY ARPT  LGT SNOW  29  27  94 CALM      29.73F
CLINES CORNERS LGT SNOW  26  24  92 W12       29.68F FOG     WCI  16
BELEN          CLOUDY    31  29  92 N5        29.74S WCI  27
SOCORRO        CLOUDY    34  32  92 N5        29.73F WCI  30

$$
NMZ524>526-539-540-261200-
SOUTHCENTRAL MOUNTAINS

CITY           SKY/WX    TMP DP  RH WIND       PRES   REMARKS
RUIDOSO        LGT SNOW  32  28  86 SW5       29.76S WCI  27

$$
NMZ527>531-261200-
NORTHEAST HIGHLANDS/NORTHEAST PLAINS

CITY           SKY/WX    TMP DP  RH WIND       PRES   REMARKS
LAS VEGAS      CLOUDY    27  20  75 SE9       29.68F WCI  18
RATON          LGT SNOW  24  20  84 N14       29.72R VSB 1   WCI  12
CLAYTON        CLOUDY    27  24  89 N18       29.77S WCI  14

$$
NMZ532>537-261200-
EASTCENTRAL PLAINS

CITY           SKY/WX    TMP DP  RH WIND       PRES   REMARKS
TUCUMCARI      CLEAR     29  23  78 NE18G29   29.75R WCI  16
CANNON AFB     CLEAR     28  21  73 S5        29.71F WCI  23
CLOVIS AIRPORT CLEAR     27  19  74 S9        29.71F WCI  17

$$
NMZ028-029-538-261200-
SOUTHEAST PLAINS

CITY           SKY/WX    TMP DP  RH WIND       PRES   REMARKS
ROSWELL        CLEAR     34  22  61 S12       29.71S WCI  25
ARTESIA        CLEAR     34  23  64 S7        29.74F WCI  28
CARLSBAD       CLEAR     35  25  66 E3        29.73S
HOBBS          CLEAR     37  28  70 S9        29.77S WCI  31


$$



USA.gov is the U.S. government's official web portal to all federal, state and local government web resources and services.